Regional Weather Roundup
Issued by NWS

Home | Current Version | Previous Version | Text Only | Print | Product List | Glossary Off
Versions: 1 2 3 4 5 6 7 8 9 10 11 12 13 14 15 16 17 18 19 20 21 22 23 24 25 26 27 28 29 30 31 32 33 34 35 36 37 38 39 40 41 42 43 44 45 46 47 48 49 50

000
ASUS43 KIND 261959
RWRIN

WEATHER ROUNDUP FOR INDIANA
NATIONAL WEATHER SERVICE INDIANAPOLIS IN
300 PM EST MON JAN 26 2015

NOTE: "FAIR" INDICATES FEW OR NO CLOUDS BELOW 12,000 FEET WITH NO
SIGNIFICANT WEATHER AND/OR OBSTRUCTIONS TO VISIBILITY.

* - STATION DOES NOT REPORT WEATHER SUCH AS PRECIPITATION OR FOG.

+ - STATION NOT QUALITY CONTROLLED BY THE NATIONAL WEATHER SERVICE.
    USE DATA WITH CAUTION...ESPECIALLY DEWPOINT AND RELATIVE
    HUMIDITY OBSERVATIONS.

INZ001>003-010>013-019-020-262100-
NORTHWEST INDIANA

CITY           SKY/WX    TMP DP  RH WIND       PRES   REMARKS
GARY /AIRPORT/ CLOUDY    28  16  59 S5        29.89F WCI  23
VALPARAISO     NOT AVBL

$$

LMZ046-743>745-262100-
SOUTHERN LAKE MICHIGAN

STATION/POSITION TIME  TEMP WIND        PRES
                       AIR  DIR/SP/G
                 (UTC) (F)  (DEG/KT/KT) (MB)
MICHIGAN CITY    1900   22  240/  2/  3   N/A

$$

INZ004-005-014>016-021>024-262100-
NORTH CENTRAL INDIANA

CITY           SKY/WX    TMP DP  RH WIND       PRES   REMARKS
ELKHART        CLOUDY    25   7  46 S3        29.89F
GOSHEN         MOSUNNY   23   7  50 CALM      29.89S
SOUTH BEND     CLOUDY    25  14  63 CALM      29.89F

$$

INZ006>009-017-018-025>027-262100-
NORTHEAST INDIANA

CITY           SKY/WX    TMP DP  RH WIND       PRES   REMARKS
ANGOLA *+      MOSUNNY   27   9  46 CALM      29.87F
FORT WAYNE     PTSUNNY   21  12  68 SW5       29.90F WCI  15

$$

INZ028-029-035-036-043>045-051>053-262100-
WEST CENTRAL INDIANA

CITY           SKY/WX    TMP DP  RH WIND       PRES   REMARKS
GREENCASTLE +  CLOUDY    30  19  64 W5        29.90F WCI  25
LAFAYETTE      CLOUDY    26  19  74 CALM      29.91F
TERRE HAUTE    CLOUDY    30  21  69 W8        29.93F WCI  22

$$

INZ030>032-037>040-046>048-054>057-064-065-262100-
CENTRAL INDIANA

CITY           SKY/WX    TMP DP  RH WIND       PRES   REMARKS
ANDERSON       SUNNY     25  12  58 NW12      29.90S WCI  14
COLUMBUS       MOSUNNY   28  19  69 W6        29.91F WCI  22
INDIANAPOLIS   CLOUDY    24  19  81 W9        29.90S WCI  14
-EAGLE CREEK   CLOUDY    26  20  77 SW6       29.90R WCI  19
KOKOMO *+      MOSUNNY   21  12  68 NW6       29.91R WCI  14
MT COMFORT *+  PTSUNNY   30  12  47 W6        29.89S WCI  24
SHELBYVILLE    MOSUNNY   29  21  72 W10       29.89F WCI  20

$$

INZ033-034-041-042-049-050-058-059-262100-
EAST CENTRAL INDIANA

CITY           SKY/WX    TMP DP  RH WIND       PRES   REMARKS
MUNCIE         SUNNY     22  12  65 NW3       29.89S

$$

INZ060-061-067>069-081>083-085>088-262100-
SOUTHWEST INDIANA

CITY           SKY/WX    TMP DP  RH WIND       PRES   REMARKS
EVANSVILLE     CLOUDY    32  23  69 W9        29.97S WCI  24
HUNTINGBURG *+ CLOUDY    30  25  80 W10       29.94F WCI  21

$$

INZ062-063-066-070>080-084-089>092-262100-
SOUTH CENTRAL AND SOUTHEAST INDIANA

CITY           SKY/WX    TMP DP  RH WIND       PRES   REMARKS
BLOOMINGTON    CLOUDY    29  22  75 W7        29.90F WCI  22

$$




USA.gov is the U.S. government's official web portal to all federal, state and local government web resources and services.